This is the latest recevied weather packets stored in our database for station/object K8DJB-1. If no packets are shown the sender has not sent any weather packets the latest 10 day(s).
| Time | Temp. | Humidity | Pressure | Rain* | Wind** | Luminosity | Snow |
|---|---|---|---|---|---|---|---|
| 1777997182 | 11.11° C | 46% | 1006.8 hPa | 0 mm | - | - | - |
| 1777996882 | 11.11° C | 42% | 1007 hPa | 0 mm | - | - | - |
| 1777996582 | 11.11° C | 46% | 1007.1 hPa | 0 mm | - | - | - |
| 1777996282 | 11.11° C | 43% | 1007 hPa | 0 mm | - | - | - |
| 1777995982 | 11.11° C | 44% | 1007 hPa | 0 mm | - | - | - |
| 1777995682 | 11.11° C | 44% | 1007.1 hPa | 0 mm | - | - | - |
| 1777995093 | 10.56° C | 47% | 1006.9 hPa | 0 mm | - | - | - |
| 1777994793 | 10.56° C | 46% | 1007 hPa | 0 mm | - | - | - |
| 1777994493 | 10.56° C | 47% | 1007.1 hPa | 0 mm | - | - | - |
| 1777994197 | 10.56° C | 47% | 1007.1 hPa | 0 mm | - | - | - |
| 1777993893 | 10.56° C | 48% | 1007.1 hPa | 0 mm | - | - | - |
| 1777993593 | 10.56° C | 47% | 1007.2 hPa | 0 mm | - | - | - |
| 1777993293 | 10.56° C | 51% | 1007.4 hPa | 0 mm | - | - | - |
| 1777992993 | 10.56° C | 49% | 1007.3 hPa | 0 mm | - | - | - |
| 1777992693 | 10.56° C | 51% | 1007.2 hPa | 0 mm | - | - | - |
| 1777992393 | 10° C | 53% | 1007 hPa | 0 mm | - | - | - |
| 1777992093 | 10° C | 53% | 1006.9 hPa | 0 mm | - | - | - |
| 1777991793 | 10° C | 57% | 1007 hPa | 0 mm | - | - | - |
| 1777991422 | 10° C | 62% | 1006.8 hPa | 0 mm | - | - | - |
| 1777991122 | 10° C | 64% | 1006.7 hPa | 0 mm | - | - | - |
| 1777990822 | 10° C | 65% | 1007 hPa | 0 mm | - | - | - |
| 1777990522 | 10° C | 65% | 1006.8 hPa | 0 mm | - | - | - |
| 1777989922 | 9.44° C | 67% | 1006.7 hPa | 0 mm | - | - | - |
| 1777989623 | 10° C | 66% | 1006.5 hPa | 0 mm | - | - | - |
| 1777989323 | 9.44° C | 66% | 1006.5 hPa | 0 mm | - | - | - |
* Rain latest hour (hover to see other rain measurements)
** Current wind speed in m/s (hover to see current wind gust speed)